Location: Baili�vre
(50.0696°N, 4.2409°E)
Time: 21:49:16
(UTC+00:00)

Aureole 1 Rocket - Pass Details

Date: 08 August 2020
Orbit: 378 x 1379 km, 73.9° (Epoch: 21 September)

Event Time Altitude Azimuth Distance (km) Brightness Sun altitude
Rises 21:17:04 0° 202° (SSW) 3,652 6.7 -16.2°
Reaches altitude 10° 21:19:23 10° 203° (SSW) 2,836 6.1 -16.4°
Maximum altitude 21:26:17 88° 292° (WNW) 1,222 4.5 -17.1°
Drops below altitude 10° 21:34:40 10° 24° (NNE) 3,410 7.2 -17.8°
Sets 21:37:41 0° 25° (NNE) 4,426 7.9 -18.1°
